Location: Riverside Cemetery
(38.3047°N, 99.7773°W)
Time: 11:48:03
(UTC+00:00)

Cosmos 468 Rocket - Pass Details

Date: 19 September 2020
Orbit: 745 x 779 km, 74.0° (Epoch: 30 October)

Event Time Altitude Azimuth Distance (km) Brightness Sun altitude
Exits shadow 11:04:18 14° 207° (SSW) 2,083 5.9 -16.4°
Maximum altitude 11:08:56 69° 290° (WNW) 830 4.0 -15.5°
Drops below altitude 10° 11:14:12 10° 13° (NNE) 2,323 6.8 -14.5°
Sets 11:16:36 0° 16° (NNE) 3,249 7.7 -14.1°
